Regional Weather Roundup
Issued by NWS

Home | Current Version | Previous Version | Graphics & Text | Print | Product List | Glossary Off
Versions: 1 2 3 4 5 6 7 8 9 10 11 12 13 14 15 16 17 18 19 20 21 22 23 24 25 26 27 28 29 30 31 32 33 34 35 36 37 38 39 40 41 42 43 44 45 46 47 48 49 50

000
ASUS43 KFSD 041802
RWRSD

WEATHER ROUNDUP FOR SOUTH DAKOTA
NATIONAL WEATHER SERVICE SIOUX FALLS SD
100 PM CDT WED MAY 04 2016

NOTE: "FAIR" INDICATES FEW OR NO CLOUDS BELOW 12,000 FEET WITH NO
SIGNIFICANT WEATHER AND/OR OBSTRUCTIONS TO VISIBILITY.


SDZ001>005-009-010-012>017-041900-
NORTHWEST AND NORTH CENTRAL SOUTH DAKOTA

CITY           SKY/WX    TMP DP  RH WIND       PRES   REMARKS
BUFFALO          N/A     76  38  25 S10G20    30.03F
FAITH            N/A     72  40  31 S6        30.10F
MOBRIDGE       SUNNY     68  39  34 SE7       30.08F
$$

SDZ012>016-024>037-041>051-057-063-072>074-041900-
SOUTHWEST AND SOUTH CENTRAL SOUTH DAKOTA

CITY           SKY/WX    TMP DP  RH WIND       PRES   REMARKS
RAPID CTY ARPT SUNNY     73  40  30 SW9       30.13F
PIERRE         SUNNY     66  32  28 VRB5      30.11F
CUSTER         MOSUNNY   65  33  30 MISG      30.21F
ELLSWORTH AFB  MOSUNNY   73  41  30 SW7       30.12F
PHILIP         SUNNY     72  42  34 CALM      30.11F
PINE RIDGE     SUNNY     73  38  27 VRB3      30.15F
WINNER         FAIR      67  33  28 N9        30.13F
$$

SDZ004>011-016>023-039-040-041900-
NORTHEAST SOUTH DAKOTA

CITY           SKY/WX    TMP DP  RH WIND       PRES   REMARKS
ABERDEEN       SUNNY     66  31  27 N8        30.09F
WATERTOWN      SUNNY     64  34  32 N13G21    30.07F
BROOKINGS      SUNNY     62  34  35 N16G24    30.05F
SISSETON         N/A     65  30  27 N18G24    30.06F
$$

SDZ017-020-022-023-036>040-048>070-041900-
SOUTHEAST SOUTH DAKOTA

CITY           SKY/WX    TMP DP  RH WIND       PRES   REMARKS
SIOUX FALLS    MOSUNNY   63  38  39 N10G20    30.07F
HURON          SUNNY     64  34  32 N13G18    30.09F
MITCHELL       SUNNY     63  37  38 N9        30.11F
YANKTON        SUNNY     63  37  39 NW7       30.09F
$$

ABBREVIATIONS USED IN REMARKS
   TC - TEMPERATURE IN CELSIUS
  WCI - WIND CHILL INDEX
   HX - HEAT INDEX
  VSB - VISIBILITY





USA.gov is the U.S. government's official web portal to all federal, state and local government web resources and services.